| time (UTC) | temp F | wind direction | speed MPH | gust MPH | rain 1hr in | rain 24hr in | rain mn in | humidity % | barometer mb |
| 20260505164537 | 77 | 228 | 16.0 | 24.0 | 0.00 | 0.00 | 0.00 | 49 | 1007.6 |
| 20260505163517 | 76 | 229 | 15.0 | 21.0 | 0.00 | 0.00 | 0.00 | 49 | 1007.7 |
| 20260505162517 | 76 | 237 | 14.0 | 21.0 | 0.00 | 0.00 | 0.00 | 51 | 1007.8 |
| 20260505161537 | 75 | 226 | 13.0 | 20.0 | 0.00 | 0.00 | 0.00 | 53 | 1007.9 |
| 20260505160517 | 75 | 224 | 13.0 | 19.0 | 0.00 | 0.00 | 0.00 | 54 | 1007.9 |
| 20260505152517 | 72 | 231 | 9.0 | 18.0 | 0.00 | 0.00 | 0.00 | 57 | 1008.3 |
| 20260505151517 | 72 | 225 | 9.0 | 17.0 | 0.00 | 0.00 | 0.00 | 59 | 1008.4 |
| 20260505150517 | 71 | 225 | 9.0 | 17.0 | 0.00 | 0.00 | 0.00 | 60 | 1008.5 |
| 20260505140518 | 67 | 231 | 10.0 | 13.0 | 0.00 | 0.00 | 0.00 | 65 | 1008.9 |
| 20260505124516 | 61 | 223 | 5.0 | 8.0 | 0.00 | 0.00 | 0.00 | 72 | 1009.4 |
| 20260505123537 | 61 | 238 | 4.0 | 6.0 | 0.00 | 0.00 | 0.00 | 73 | 1009.4 |
| 20260505122517 | 60 | 236 | 4.0 | 6.0 | 0.00 | 0.00 | 0.00 | 73 | 1009.1 |
| 20260505121517 | 60 | 241 | 4.0 | 6.0 | 0.00 | 0.00 | 0.00 | 73 | 1009.2 |
| 20260505120537 | 60 | 296 | 2.0 | 3.0 | 0.00 | 0.00 | 0.00 | 72 | 1009.1 |
| 20260505115517 | 60 | 297 | 1.0 | 2.0 | 0.00 | 0.00 | 0.00 | 73 | 1009.0 |
| 20260505114517 | 59 | 296 | 1.0 | 3.0 | 0.00 | 0.00 | 0.00 | 73 | 1009.1 |
| 20260505113517 | 59 | 296 | 2.0 | 3.0 | 0.00 | 0.00 | 0.00 | 73 | 1009.1 |
| 20260505112517 | 58 | 296 | 2.0 | 2.0 | 0.00 | 0.00 | 0.00 | 72 | 1009.0 |
| 20260505111517 | 57 | 297 | 0.0 | 2.0 | 0.00 | 0.00 | 0.00 | 72 | 1008.8 |
| 20260505110517 | 56 | 297 | 1.0 | 3.0 | 0.00 | 0.00 | 0.00 | 70 | 1008.8 |
| 20260505101517 | 52 | 0.0 | 0.0 | 0.00 | 0.00 | 0.00 | 57 | 1008.3 | |
| 20260505100517 | 52 | 0.0 | 1.0 | 0.00 | 0.00 | 0.00 | 57 | 1008.2 | |
| 20260505095517 | 53 | 0.0 | 0.0 | 0.00 | 0.00 | 0.00 | 59 | 1008.2 | |
| 20260505094517 | 54 | 0.0 | 0.0 | 0.00 | 0.00 | 0.00 | 64 | 1008.2 | |
| 20260505093537 | 54 | 299 | 0.0 | 1.0 | 0.00 | 0.00 | 0.00 | 66 | 1008.2 |
| 20260505092517 | 54 | 300 | 0.0 | 1.0 | 0.00 | 0.00 | 0.00 | 66 | 1008.1 |
| 20260505091516 | 55 | 0.0 | 0.0 | 0.00 | 0.00 | 0.00 | 69 | 1008.1 | |
| 20260505090517 | 55 | 0.0 | 0.0 | 0.00 | 0.00 | 0.00 | 71 | 1008.1 | |
| 20260505085536 | 56 | 298 | 1.0 | 2.0 | 0.00 | 0.00 | 0.00 | 73 | 1008.1 |
| 20260505084517 | 56 | 0.0 | 0.0 | 0.00 | 0.00 | 0.00 | 73 | 1008.1 | |
| 20260505083517 | 57 | 300 | 1.0 | 3.0 | 0.00 | 0.00 | 0.00 | 73 | 1008.2 |
| 20260505082517 | 57 | 300 | 0.0 | 3.0 | 0.00 | 0.00 | 0.00 | 74 | 1008.2 |
| 20260505081536 | 56 | 300 | 1.0 | 3.0 | 0.00 | 0.00 | 0.00 | 74 | 1008.4 |
| 20260505080517 | 57 | 300 | 0.0 | 2.0 | 0.00 | 0.00 | 0.00 | 74 | 1008.1 |
| 20260505075517 | 57 | 300 | 1.0 | 4.0 | 0.00 | 0.00 | 0.00 | 74 | 1008.3 |
| 20260505074517 | 57 | 299 | 2.0 | 6.0 | 0.00 | 0.00 | 0.00 | 73 | 1008.3 |
| 20260505073536 | 57 | 276 | 2.0 | 4.0 | 0.00 | 0.00 | 0.00 | 73 | 1008.0 |
| 20260505072537 | 58 | 201 | 1.0 | 2.0 | 0.00 | 0.00 | 0.00 | 71 | 1007.9 |
| 20260505071517 | 59 | 204 | 2.0 | 7.0 | 0.00 | 0.00 | 0.00 | 68 | 1008.1 |
| 20260505070517 | 58 | 260 | 4.0 | 6.0 | 0.00 | 0.00 | 0.00 | 69 | 1008.1 |
| 20260505065517 | 58 | 281 | 1.0 | 3.0 | 0.00 | 0.00 | 0.00 | 70 | 1008.2 |
| 20260505064517 | 58 | 281 | 1.0 | 2.0 | 0.00 | 0.00 | 0.00 | 70 | 1008.2 |
| 20260505063517 | 57 | 281 | 0.0 | 2.0 | 0.00 | 0.00 | 0.00 | 70 | 1008.2 |
| 20260505062537 | 57 | 281 | 1.0 | 2.0 | 0.00 | 0.00 | 0.00 | 71 | 1008.1 |
| 20260505061517 | 57 | 281 | 0.0 | 2.0 | 0.00 | 0.00 | 0.00 | 70 | 1008.1 |
| 20260505060517 | 57 | 281 | 2.0 | 3.0 | 0.00 | 0.00 | 0.00 | 70 | 1008.2 |
| 20260505055517 | 57 | 281 | 2.0 | 3.0 | 0.00 | 0.00 | 0.00 | 68 | 1008.2 |
| 20260505054516 | 59 | 281 | 2.0 | 2.0 | 0.00 | 0.00 | 0.00 | 65 | 1008.2 |
| 20260505053516 | 60 | 281 | 2.0 | 3.0 | 0.00 | 0.00 | 0.00 | 63 | 1008.2 |
| 20260505052517 | 60 | 281 | 2.0 | 4.0 | 0.00 | 0.00 | 0.00 | 62 | 1008.2 |
| 20260505051517 | 61 | 281 | 3.0 | 4.0 | 0.00 | 0.00 | 0.00 | 61 | 1008.2 |
| 20260505050516 | 61 | 281 | 2.0 | 3.0 | 0.00 | 0.00 | 0.00 | 61 | 1008.2 |
| 20260505041516 | 59 | 281 | 0.0 | 3.0 | 0.00 | 0.00 | 0.00 | 62 | 1007.9 |
| 20260505040516 | 59 | 281 | 2.0 | 3.0 | 0.00 | 0.00 | 0.00 | 62 | 1008.0 |
| 20260505035515 | 58 | 281 | 3.0 | 3.0 | 0.00 | 0.00 | 0.00 | 64 | 1007.9 |
| 20260505034515 | 57 | 281 | 2.0 | 3.0 | 0.00 | 0.00 | 0.00 | 66 | 1007.7 |
| 20260505033515 | 57 | 281 | 1.0 | 2.0 | 0.00 | 0.00 | 0.00 | 64 | 1007.8 |
| 20260505032515 | 58 | 281 | 0.0 | 2.0 | 0.00 | 0.00 | 0.00 | 62 | 1007.7 |
| 20260505031515 | 58 | 281 | 2.0 | 3.0 | 0.00 | 0.00 | 0.00 | 63 | 1007.7 |
| 20260505030535 | 58 | 281 | 0.0 | 1.0 | 0.00 | 0.00 | 0.00 | 63 | 1007.8 |
| 20260505025515 | 58 | 281 | 0.0 | 2.0 | 0.00 | 0.00 | 0.00 | 63 | 1007.8 |
| 20260505024515 | 58 | 281 | 2.0 | 3.0 | 0.00 | 0.00 | 0.00 | 62 | 1007.8 |
| 20260505023515 | 59 | 281 | 2.0 | 2.0 | 0.00 | 0.00 | 0.00 | 60 | 1007.9 |
| 20260505022515 | 59 | 0.0 | 0.0 | 0.00 | 0.00 | 0.00 | 60 | 1007.9 | |
| 20260505021515 | 60 | 281 | 0.0 | 2.0 | 0.00 | 0.00 | 0.00 | 59 | 1008.0 |
| 20260505020515 | 61 | 281 | 1.0 | 2.0 | 0.00 | 0.00 | 0.00 | 57 | 1008.1 |
| 20260505015515 | 60 | 281 | 0.0 | 2.0 | 0.00 | 0.00 | 0.00 | 60 | 1008.0 |
| 20260505014515 | 60 | 281 | 2.0 | 2.0 | 0.00 | 0.00 | 0.00 | 59 | 1008.0 |
| 20260505013515 | 61 | 239 | 2.0 | 4.0 | 0.00 | 0.00 | 0.00 | 57 | 1008.0 |
| 20260505012515 | 62 | 194 | 2.0 | 3.0 | 0.00 | 0.00 | 0.00 | 55 | 1007.9 |
| 20260505011515 | 63 | 195 | 2.0 | 4.0 | 0.00 | 0.00 | 0.00 | 54 | 1007.7 |
| 20260505010515 | 63 | 194 | 2.0 | 3.0 | 0.00 | 0.00 | 0.00 | 54 | 1007.7 |
| 20260505005515 | 63 | 205 | 3.0 | 4.0 | 0.00 | 0.00 | 0.00 | 55 | 1007.5 |
| 20260505004515 | 63 | 206 | 4.0 | 6.0 | 0.00 | 0.00 | 0.00 | 54 | 1007.4 |
| 20260505003515 | 64 | 197 | 4.0 | 7.0 | 0.00 | 0.00 | 0.00 | 53 | 1007.3 |
| 20260505002535 | 64 | 194 | 5.0 | 8.0 | 0.00 | 0.00 | 0.00 | 52 | 1007.3 |
| 20260505001535 | 65 | 186 | 6.0 | 11.0 | 0.00 | 0.00 | 0.00 | 51 | 1007.2 |
| 20260505000515 | 66 | 186 | 6.0 | 11.0 | 0.00 | 0.00 | 0.00 | 50 | 1007.1 |
| 20260504235515 | 66 | 189 | 6.0 | 12.0 | 0.00 | 0.00 | 0.00 | 49 | 1007.0 |
| 20260504234515 | 67 | 176 | 7.0 | 12.0 | 0.00 | 0.00 | 0.00 | 49 | 1006.9 |
| 20260504233535 | 68 | 174 | 5.0 | 11.0 | 0.00 | 0.00 | 0.00 | 48 | 1006.9 |
| 20260504232515 | 68 | 177 | 9.0 | 17.0 | 0.00 | 0.00 | 0.00 | 46 | 1006.8 |
| 20260504231520 | 69 | 175 | 10.0 | 16.0 | 0.00 | 0.00 | 0.00 | 46 | 1006.7 |
| 20260504230515 | 69 | 193 | 7.0 | 13.0 | 0.00 | 0.00 | 0.00 | 46 | 1006.6 |
| 20260504225515 | 70 | 215 | 10.0 | 15.0 | 0.00 | 0.00 | 0.00 | 44 | 1006.5 |
| 20260504224515 | 70 | 214 | 9.0 | 17.0 | 0.00 | 0.00 | 0.00 | 44 | 1006.4 |
| 20260504223515 | 70 | 215 | 10.0 | 17.0 | 0.00 | 0.00 | 0.00 | 44 | 1006.4 |
| 20260504222535 | 70 | 214 | 10.0 | 14.0 | 0.00 | 0.00 | 0.00 | 44 | 1006.4 |
| 20260504221535 | 71 | 219 | 9.0 | 14.0 | 0.00 | 0.00 | 0.00 | 44 | 1006.5 |
| 20260504220535 | 71 | 226 | 9.0 | 15.0 | 0.00 | 0.00 | 0.00 | 44 | 1006.7 |
| 20260504215515 | 71 | 226 | 13.0 | 19.0 | 0.00 | 0.00 | 0.00 | 43 | 1006.7 |
| 20260504214515 | 71 | 223 | 11.0 | 19.0 | 0.00 | 0.00 | 0.00 | 43 | 1006.7 |
| 20260504213515 | 71 | 218 | 13.0 | 21.0 | 0.00 | 0.00 | 0.00 | 43 | 1006.7 |
| 20260504212515 | 70 | 221 | 10.0 | 18.0 | 0.00 | 0.00 | 0.00 | 44 | 1006.8 |
| 20260504211515 | 70 | 220 | 9.0 | 21.0 | 0.00 | 0.00 | 0.00 | 45 | 1006.7 |
| 20260504210515 | 70 | 219 | 11.0 | 21.0 | 0.00 | 0.00 | 0.00 | 44 | 1006.8 |
| 20260504205515 | 71 | 222 | 13.0 | 19.0 | 0.00 | 0.00 | 0.00 | 44 | 1007.0 |
| 20260504204515 | 70 | 217 | 11.0 | 18.0 | 0.00 | 0.00 | 0.00 | 44 | 1007.0 |
| 20260504203515 | 70 | 233 | 13.0 | 22.0 | 0.00 | 0.00 | 0.00 | 44 | 1007.1 |
| 20260504202515 | 70 | 223 | 12.0 | 17.0 | 0.00 | 0.00 | 0.00 | 44 | 1007.2 |
| 20260504201515 | 71 | 214 | 10.0 | 14.0 | 0.00 | 0.00 | 0.00 | 46 | 1007.4 |
| 20260504200515 | 70 | 231 | 12.0 | 22.0 | 0.00 | 0.00 | 0.00 | 44 | 1007.5 |
| 20260504195515 | 70 | 227 | 13.0 | 19.0 | 0.00 | 0.00 | 0.00 | 46 | 1007.5 |
| 20260504194515 | 70 | 226 | 14.0 | 21.0 | 0.00 | 0.00 | 0.00 | 45 | 1007.7 |
| 20260504193515 | 69 | 219 | 15.0 | 23.0 | 0.00 | 0.00 | 0.00 | 44 | 1007.7 |
| 20260504192515 | 69 | 224 | 15.0 | 23.0 | 0.00 | 0.00 | 0.00 | 44 | 1007.9 |
| 20260504191535 | 69 | 235 | 13.0 | 22.0 | 0.00 | 0.00 | 0.00 | 43 | 1007.9 |
| 20260504190515 | 70 | 224 | 13.0 | 20.0 | 0.00 | 0.00 | 0.00 | 45 | 1008.0 |
| 20260504185515 | 69 | 233 | 11.0 | 20.0 | 0.00 | 0.00 | 0.00 | 45 | 1008.1 |
| 20260504184515 | 69 | 227 | 11.0 | 23.0 | 0.00 | 0.00 | 0.00 | 46 | 1008.4 |
| 20260504183515 | 69 | 230 | 14.0 | 19.0 | 0.00 | 0.00 | 0.00 | 46 | 1008.5 |
| 20260504182515 | 68 | 227 | 10.0 | 21.0 | 0.00 | 0.00 | 0.00 | 44 | 1008.6 |
| 20260504181515 | 68 | 241 | 17.0 | 27.0 | 0.00 | 0.00 | 0.00 | 44 | 1008.7 |
| 20260504180535 | 68 | 237 | 14.0 | 23.0 | 0.00 | 0.00 | 0.00 | 45 | 1008.8 |
| 20260504175535 | 67 | 234 | 10.0 | 23.0 | 0.00 | 0.00 | 0.00 | 46 | 1008.9 |
| 20260504174515 | 67 | 234 | 13.0 | 21.0 | 0.00 | 0.00 | 0.00 | 47 | 1009.0 |
| 20260504173515 | 66 | 222 | 12.0 | 20.0 | 0.00 | 0.00 | 0.00 | 46 | 1009.2 |
| 20260504172515 | 66 | 224 | 10.0 | 20.0 | 0.00 | 0.00 | 0.00 | 49 | 1009.4 |
| 20260504171515 | 66 | 235 | 13.0 | 21.0 | 0.00 | 0.00 | 0.00 | 47 | 1009.6 |
| 20260504170515 | 66 | 226 | 15.0 | 20.0 | 0.00 | 0.00 | 0.00 | 48 | 1009.8 |